Flag for Germany Weather past 2 weeks in Hofheim am Taunus, Hesse, Germany

Now
75 °F

Clear.


Feels Like: 77 °F
Forecast: 61 / 80 °F
Wind: 8 mph from West

Location: Wiesbaden Airport

Current Time: Jul 5, 2015 at 11:34:37 PM

Latest Report: Jul 5, 2015 at 10:58 PM


Visibility: N/A

Pressure: 29.95 "Hg

Humidity: 69%

Dew point: 64 °F

Location of Hofheim am TaunusLocation

Historic Weather in Hofheim am Taunus — Graph

°F

Hofheim am Taunus temperature yesterday

Maximum temperature yesterday: 100 °F (at 5:58 PM)
Minimum temperature yesterday: 72 °F (at 4:58 AM)
Average temperature yesterday: 86 °F

Past Weeks' High & Low Weather Summary

 TemperatureHumidityPressure
High100 °F (Jul 5, 5:58 PM)100% (Jun 22, 12:59 AM)30.24 "Hg (Jun 22, 12:59 AM)
Low48 °F (Jun 23, 4:58 AM)22% (Jul 5, 5:58 PM)29.68 "Hg (Jun 23, 12:04 AM)
Average70 °F65%30.07 "Hg
* Reported Jun 20 9:58 PM — Jul 5 9:58 PM, Hofheim am Taunus, Weather by CustomWeather, © 2015

Note: Actual official high and low records may vary slightly from our data, if they occured in-between our weather recording intervals... More about our weather records

Advertising

Hofheim am Taunus weather history for previous 24 hours

 ConditionsComfort  
Time TempWeatherWind HumidityBarometerVisibility
9:58 PM
Sun, Jul 5
76 °FSunny.9 mph67%29.92 "HgN/A
8:58 PM82 °FSunny.14 mph59%29.86 "HgN/A
7:58 PM97 °FSunny.8 mph27%29.83 "HgN/A
6:58 PM99 °FSunny.12 mph25%29.83 "HgN/A
5:58 PM100 °FSunny.10 mph22%29.82 "HgN/A
4:58 PM100 °FSunny.10 mph26%29.85 "HgN/A
4:04 PM97 °FThundershowers. Passing clouds.13 mph32%29.89 "HgN/A
3:49 PM93 °FThunderstorms. Passing clouds.15 mph41%29.89 "HgN/A
2:58 PM99 °FSunny.12 mph31%29.90 "HgN/A
1:58 PM95 °FSunny.8 mph37%29.94 "HgN/A
12:58 PM95 °FSunny.7 mph36%29.96 "HgN/A
11:58 AM92 °FSunny.6 mph39%29.96 "HgN/A
10:58 AM89 °FSunny.7 mph47%29.99 "HgN/A
9:58 AM86 °FSunny.8 mph51%30.00 "HgN/A
8:58 AM82 °FSunny.9 mph61%30.01 "HgN/A
7:58 AM79 °FSunny.3 mph63%30.03 "HgN/A
6:58 AM77 °FSunny.No wind69%30.03 "HgN/A
5:58 AM76 °FClear.2 mph67%30.03 "HgN/A
4:58 AM75 °FClear.No wind65%30.03 "HgN/A
3:58 AM77 °FPassing clouds.5 mph61%30.05 "HgN/A
2:58 AM75 °FPassing clouds.2 mph65%30.05 "HgN/A
1:58 AM76 °FPassing clouds.No wind65%30.05 "HgN/A
12:58 AM77 °FPartly cloudy.No wind61%30.06 "HgN/A
11:58 PM
Sat, Jul 4
79 °FPassing clouds.3 mph58%30.05 "HgN/A
Weather by CustomWeather, © 2015

See weather overviewHow to use our weather pages